This is the latest recevied weather packets stored in our database for station/object NZ3C. If no packets are shown the sender has not sent any weather packets the latest 10 day(s).
| Time | Temp. | Humidity | Pressure | Rain* | Wind** | Luminosity | Snow |
|---|---|---|---|---|---|---|---|
| 1777824533 | 16.11° C | 43% | 1020.4 hPa | 0 mm | - | 862 W/m² | - |
| 1777824230 | 16.67° C | 45% | 1020.5 hPa | 0 mm | - | 860 W/m² | - |
| 1777823925 | 16.11° C | 46% | 1020.6 hPa | 0 mm | - | 850 W/m² | - |
| 1777823623 | 16.11° C | 46% | 1020.7 hPa | 0 mm | - | 847 W/m² | - |
| 1777823320 | 15.56° C | 43% | 1020.8 hPa | 0 mm | - | 840 W/m² | - |
| 1777823017 | 15.56° C | 42% | 1020.6 hPa | 0 mm | - | 834 W/m² | - |
| 1777822715 | 16.11° C | 41% | 1020.2 hPa | 0 mm | - | 824 W/m² | - |
| 1777822413 | 16.11° C | 40% | 1020.4 hPa | 0 mm | - | 820 W/m² | - |
| 1777822110 | 16.11° C | 45% | 1020.5 hPa | 0 mm | - | 810 W/m² | - |
| 1777821808 | 15.56° C | 46% | 1020.4 hPa | 0 mm | - | 801 W/m² | - |
| 1777821505 | 15.56° C | 40% | 1020.5 hPa | 0 mm | - | 792 W/m² | - |
| 1777821203 | 15.56° C | 47% | 1020.6 hPa | 0 mm | - | 781 W/m² | - |
| 1777820899 | 15.56° C | 43% | 1020.4 hPa | 0 mm | - | 772 W/m² | - |
| 1777820595 | 15° C | 45% | 1020.6 hPa | 0 mm | - | 761 W/m² | - |
| 1777820292 | 15° C | 41% | 1020.3 hPa | 0 mm | - | 751 W/m² | - |
| 1777819990 | 15° C | 42% | 1020.6 hPa | 0 mm | - | 740 W/m² | - |
| 1777819687 | 15° C | 46% | 1020.3 hPa | 0 mm | - | 728 W/m² | - |
| 1777819386 | 15° C | 47% | 1020.6 hPa | 0 mm | - | 714 W/m² | - |
| 1777819082 | 15° C | 45% | 1020.5 hPa | 0 mm | - | 699 W/m² | - |
| 1777818779 | 14.44° C | 46% | 1020.4 hPa | 0 mm | - | 688 W/m² | - |
| 1777818474 | 15° C | 48% | 1020.6 hPa | 0 mm | - | 668 W/m² | - |
| 1777818172 | 13.89° C | 52% | 1020.4 hPa | 0 mm | - | 648 W/m² | - |
| 1777817868 | 13.89° C | 51% | 1020.6 hPa | 0 mm | - | 524 W/m² | - |
| 1777817566 | 13.89° C | 53% | 1020.3 hPa | 0 mm | - | 487 W/m² | - |
| 1777817262 | 13.89° C | 52% | 1020.4 hPa | 0 mm | - | 475 W/m² | - |
* Rain latest hour (hover to see other rain measurements)
** Current wind speed in m/s (hover to see current wind gust speed)